This demonstration page uses our WeatherBlox Daily Observations layout. Learn more.

Left ArrowRight Arrow

41.12389, -100.76542

Hourly Observations for May 17, 2022

Temp ( °F °C ) Dew Point ( °F °C ) Humidity (%) Winds ( mph kmh ) Pressure ( in mb ) Visibility ( mi km ) Precip ( " mm )
12:03 am 00:03 Mostly Cloudy with Light Rain 71 21.7 50 10 47 47 SSE 14 22 29.73 1007 10 16 0.00 0.00
12:53 am 00:53 Clear 70 21.1 49 9.4 47 47 SE 24 39 29.73 1007 10 16 0.00 0.00
1:13 am 01:13 Clear with Nearby Thunderstorms 70 21.1 49 9.4 47 47 SSE 13 20 29.72 1006 10 16 0.00 0.00
1:28 am 01:28 Clear 70 21.1 49 9.4 47 47 SE 12 19 29.73 1007 10 16 0.00 0.00
1:37 am 01:37 Clear with Nearby Thunderstorms 69 20.6 49 9.4 49 49 SE 12 19 29.74 1007 10 16 0.00 0.00
1:53 am 01:53 Clear 71 21.7 48 8.9 44 44 SSE 16 26 29.75 1008 10 16 0.00 0.00
2:53 am 02:53 Clear 69 20.6 47 8.3 45 45 SE 10 17 29.74 1007 10 16 0.00 0.00
3:53 am 03:53 Clear 66 18.9 48 8.9 52 52 SE 10 17 29.73 1007 10 16 0.00 0.00
4:53 am 04:53 Clear 65 18.3 49 9.4 56 56 SE 10 17 29.72 1007 10 16 0.00 0.00
5:53 am 05:53 Clear 63 17.2 51 10.6 65 65 SSE 8 13 29.72 1006 10 16 0.00 0.00
6:53 am 06:53 Sunny 61 16.1 52 11.1 72 72 SSE 12 19 29.72 1007 10 16 0.00 0.00
7:53 am 07:53 Sunny 63 17.2 53 11.7 70 70 S 7 11 29.76 1008 10 16 0.00 0.00
8:53 am 08:53 Sunny 65 18.3 55 12.8 70 70 VRB 7 11 29.77 1008 10 16 0.00 0.00
9:53 am 09:53 Sunny 67 19.4 55 12.8 66 66 Calm 29.76 1008 10 16 0.00 0.00
10:53 am 10:53 Sunny 69 20.6 56 13.3 63 63 SSW 7 11 29.75 1008 10 16 0.00 0.00
11:53 am 11:53 Sunny 73 22.8 57 13.9 57 57 SSW 7 11 29.74 1007 10 16 0.00 0.00
12:53 pm 12:53 Sunny 76 24.4 56 13.3 50 50 VRB 5 7 29.73 1007 10 16 0.00 0.00
1:53 pm 13:53 Sunny 79 26.1 57 13.9 47 47 VRB 3 6 29.72 1007 10 16 0.00 0.00
2:53 pm 14:53 Sunny 83 28.3 57 13.9 41 41 Calm 29.71 1006 10 16 0.00 0.00
3:53 pm 15:53 Sunny 86 30 58 14.4 39 39 NNE 9 15 29.71 1006 10 16 0.00 0.00
4:53 pm 16:53 Sunny 85 29.4 56 13.3 37 37 NE 14 22 29.71 1006 10 16 0.00 0.00
5:53 pm 17:53 Sunny 83 28.3 55 12.8 38 38 NNE 12 19 29.71 1006 10 16 0.00 0.00
6:53 pm 18:53 Sunny 83 28.3 55 12.8 38 38 NNE 15 24 29.72 1006 10 16 0.00 0.00
7:53 pm 19:53 Sunny 80 26.7 51 10.6 37 37 N 17 28 29.73 1007 10 16 0.00 0.00
8:53 pm 20:53 Sunny 74 23.3 52 11.1 46 46 NNE 12 19 29.80 1009 10 16 0.00 0.00
9:53 pm 21:53 Clear 70 21.1 50 10 49 49 NE 8 13 29.82 1010 10 16 0.00 0.00
10:53 pm 22:53 Mostly Cloudy with Light Rain 68 20 52 11.1 57 57 NE 14 22 29.83 1010 10 16 0.00 0.00
11:53 pm 23:53 Clear 63 17.2 53 11.7 70 70 Calm 29.84 1011 10 16 0.00 0.00

Powered by AerisWeather